Home   Weather   Völkermarkt   Past weeks

Flag for Austria Past Weather in Völkermarkt, Carinthia, Austria — Yesterday and Last 2 Weeks

Now
55 °F

Overcast.


Feels Like: N/A
Forecast: 46 / 73 °F
Wind: N/A

Location: Klagenfurt-Flughafen

Current Time: Aug 20, 2017 at 6:14:45 am

Latest Report: Aug 20, 2017 at 5:00 am


Visibility: 31 mi

Pressure: 30.16 "Hg

Humidity: 91%

Dew Point: 53 °F

Location of VölkermarktLocation

Past Weather in Völkermarkt — Graph

°F

Völkermarkt Temperature Yesterday

Maximum temperature yesterday: 72 °F (at 12:00 pm)
Minimum temperature yesterday: 58 °F (at 11:00 pm)
Average temperature yesterday: 64 °F

High & Low Weather Summary for the Past Weeks

 TemperatureHumidityPressure
High90 °F (Aug 5, 5:00 pm)95% (Aug 6, 10:00 pm)30.22 "Hg (Aug 6, 10:00 pm)
Low51 °F (Aug 13, 6:00 am)32% (Aug 11, 5:00 pm)29.80 "Hg (Aug 11, 11:00 am)
Average69 °F72%30.03 "Hg
* Reported Aug 5 4:00 am — Aug 20 4:00 am, Völkermarkt. Weather by CustomWeather, © 2017

Note: Actual official high and low records may vary slightly from our data, if they occured in-between our weather recording intervals... More about our weather records

Advertising

Völkermarkt Weather History for the Previous 24 Hours

Scroll right to see more
 ConditionsComfort  
Time TempWeatherWind HumidityBarometerVisibility
4:00 am
Sun, Aug 20
56 °FLight rain. Low clouds.N/A92%30.17 "Hg31 mi
3:00 am56 °FHeavy rain. Low clouds.N/A92%30.20 "Hg9 mi
2:00 am57 °FHeavy rain. Overcast.N/A92%30.22 "Hg4 mi
1:00 am57 °FHeavy rain. Overcast.N/A94%30.18 "Hg5 mi
12:00 am58 °FHeavy rain. Low clouds.N/A94%30.17 "Hg5 mi
11:00 pm
Sat, Aug 19
58 °FLow clouds.N/A92%30.14 "Hg28 mi
10:00 pm59 °FThundershowers. Low clouds.N/A92%30.14 "Hg9 mi
9:00 pm60 °FRain showers. Low clouds.N/A89%30.11 "Hg9 mi
8:00 pm62 °FThundershowers. Low clouds.7 mph83%30.03 "Hg9 mi
7:00 pm65 °FRain showers. Low clouds.3 mph85%30.01 "Hg28 mi
6:00 pm66 °FLow clouds.N/A82%30.00 "Hg22 mi
5:00 pm65 °FLow clouds.5 mph85%30.03 "Hg19 mi
4:00 pm66 °FLow clouds.N/A85%30.03 "Hg19 mi
3:00 pm65 °FRain showers. Low clouds.N/A88%30.03 "Hg22 mi
2:00 pm65 °FRain showers. Overcast.N/A92%30.02 "Hg8 mi
1:00 pm69 °FRain showers. Overcast.5 mph80%30.04 "Hg9 mi
12:00 pm72 °FOvercast.N/A63%29.99 "Hg17 mi
11:00 am71 °FOvercast.N/A66%29.99 "Hg22 mi
10:00 am67 °FLight rain. Overcast.N/A76%30.00 "Hg18 mi
9:00 am66 °FOvercast.N/A75%29.98 "Hg25 mi
8:00 am63 °FOvercast.N/A82%29.98 "Hg14 mi
7:00 am62 °FOvercast.N/A85%29.98 "Hg25 mi
6:00 am62 °FPassing clouds.N/A86%29.98 "Hg12 mi
Weather by CustomWeather, © 2017

See weather overviewHow to use our weather pages